sat.trackr.live / text

‹ back to catalog

TIANTONG-1 1

NORAD 41725 · 2016-048A

PAYLOAD ACTIVE UNKNOWN

§ Identity

Operator
Country
PRC
Launch date
2016-08-05
Launch site
XICLF
Launch vehicle
Mass (kg)
RCS (m²)
27.90

Purposes: comms

External: N2YO · Heavens-Above · Gunter

§ Orbital elements

Epoch: 2026-09-19T22:35:04.024320Z

Period
1,436.11 min
Inclination
4.0316°
Eccentricity
0.0002277
Mean motion
1.00270888 rev/d
Perigee alt
35,777.2 km
Apogee alt
35,796.4 km
Semi-major
42,165.0 km
B*
0.0000e+0
RAAN
44.0212°
Arg perigee
84.4672°
Mean anomaly
310.5483°
Rev number
3,722

§ Raw data

TIANTONG-1 11 41725U 16048A   26262.94101880 -.00000319  00000+0  00000+0 0  99992 41725   4.0316  44.0212 0002277  84.4672 310.5483  1.00270888 37229

JSON: /api/v1/satellites/41725 · /tle

For live sub-satellite position, see the globe view (requires WebGL).

§ Visibility from observer

Set your observer location to see the next 7 days of passes ≥ 10°. The values pass through the URL so the page stays shareable.

No JS? Fill the form by hand. The geolocation button needs JavaScript.